TimeCST,TemperatureF,Dew PointF,Humidity,Sea Level PressureIn,VisibilityMPH,Wind Direction,Wind SpeedMPH,Gust SpeedMPH,PrecipitationIn,Events,Conditions,WindDirDegrees,DateUTC
12:53 AM,33.1,25.0,72,30.01,10.0,NNW,5.8,-,N/A,,Overcast,330,2012-12-07 06:53:00
1:53 AM,32.0,25.0,75,30.02,10.0,NNW,10.4,-,N/A,,Overcast,330,2012-12-07 07:53:00
2:53 AM,30.9,25.0,79,30.02,10.0,NNW,11.5,-,N/A,,Clear,340,2012-12-07 08:53:00
3:53 AM,30.9,24.1,76,30.01,10.0,North,13.8,-,N/A,,Partly Cloudy,350,2012-12-07 09:53:00
4:53 AM,30.0,24.1,79,30.01,10.0,North,9.2,-,N/A,,Partly Cloudy,360,2012-12-07 10:53:00
5:53 AM,28.9,24.1,82,30.00,10.0,NNE,8.1,-,N/A,,Scattered Clouds,20,2012-12-07 11:53:00
6:53 AM,28.0,21.9,78,30.02,10.0,NNE,8.1,-,N/A,,Partly Cloudy,20,2012-12-07 12:53:00
7:53 AM,28.0,21.9,78,30.01,9.0,NNE,11.5,-,N/A,,Overcast,20,2012-12-07 13:53:00
8:53 AM,28.9,23.0,78,30.02,10.0,NNE,6.9,-,N/A,,Overcast,30,2012-12-07 14:53:00
9:53 AM,30.9,23.0,72,30.01,10.0,NE,8.1,-,N/A,,Overcast,50,2012-12-07 15:53:00
10:53 AM,33.1,23.0,66,30.00,10.0,NE,8.1,-,N/A,,Overcast,50,2012-12-07 16:53:00
11:53 AM,35.1,23.0,61,29.99,10.0,NE,11.5,-,N/A,,Overcast,40,2012-12-07 17:53:00
12:53 PM,35.1,23.0,61,29.98,10.0,NNE,10.4,-,N/A,,Overcast,20,2012-12-07 18:53:00
1:53 PM,34.0,23.0,64,29.98,10.0,North,12.7,-,N/A,,Overcast,10,2012-12-07 19:53:00
2:53 PM,34.0,24.1,67,29.99,10.0,North,12.7,-,N/A,,Overcast,10,2012-12-07 20:53:00
3:53 PM,33.1,23.0,66,30.01,10.0,North,5.8,-,N/A,,Overcast,10,2012-12-07 21:53:00
4:53 PM,30.9,23.0,72,30.00,10.0,NNE,9.2,-,N/A,,Overcast,30,2012-12-07 22:53:00
5:53 PM,30.9,21.9,69,29.99,10.0,NE,11.5,-,N/A,,Overcast,40,2012-12-07 23:53:00
6:53 PM,30.2,21.2,69,29.96,10.0,NE,10.4,-,N/A,,Overcast,50,2012-12-08 00:53:00
7:53 PM,30.9,21.0,67,30.00,10.0,NNE,9.2,-,N/A,,Overcast,30,2012-12-08 01:53:00
8:53 PM,30.2,21.2,69,29.97,10.0,NE,10.4,-,N/A,,Overcast,40,2012-12-08 02:53:00
9:53 PM,30.0,21.9,72,30.01,10.0,NNE,9.2,-,N/A,,Overcast,30,2012-12-08 03:53:00
10:53 PM,28.9,23.0,78,30.01,10.0,NNE,6.9,-,N/A,,Overcast,30,2012-12-08 04:53:00
11:53 PM,28.9,24.1,82,30.01,10.0,NNE,9.2,-,N/A,,Overcast,30,2012-12-08 05:53:00